Location: Olomouc
(49.5830°N, 17.2500°E)
Time: 20:50:42
(UTC+02:00)

ISS - Pass Details

Date: 14 May 2021
Orbit: 417 x 422 km, 51.6° (Epoch: 14 June)

Event Time Altitude Azimuth Distance (km) Brightness Sun altitude
Rises 22:48:56 0° 235° (SW) 2,356 0.0 -16.7°
Reaches altitude 10° 22:51:03 10° 230° (SW) 1,496 -1.1 -16.9°
Maximum altitude 22:54:19 52° 153° (SSE) 529 -3.7 -17.1°
Enters shadow 22:54:47 47° 121° (ESE) 564 -3.5 -17.2°
Exits shadow 22:56:44 17° 80° (E) 1,157 -1.7 -17.3°
Drops below altitude 10° 22:57:37 10° 76° (ENE) 1,506 -1.1 -17.4°
Sets 22:59:45 0° 71° (ENE) 2,374 0.0 -17.5°
